Regional Weather Roundup
Issued by NWS Charleston, SC

Current Version | Previous Version | Graphics & Text | Print | Product List | Glossary On
Versions: 1 2 3 4 5 6 7 8 9 10 11 12 13 14 15 16 17 18 19 20 21 22 23 24 25 26 27 28 29 30 31 32 33 34 35 36 37 38 39 40 41 42 43 44 45 46 47 48 49 50
000 ASUS42 KCHS 210727 RWRCHS REGIONAL WEATHER ROUNDUP NATIONAL WEATHER SERVICE CHARLESTON SC 300 AM EDT FRI JUL 21 2017 NOTE: "FAIR" INDICATES FEW OR NO CLOUDS BELOW 12,000 FEET WITH NO SIGNIFICANT WEATHER AND/OR OBSTRUCTIONS TO VISIBILITY. NOT ALL STATIONS ARE QUALITY CONTROLLED. USE DATA WITH CAUTION... ESPECIALLY DEWPOINT OBSERVATIONS. SCZ027-030-031-034>040-042>050-210800- ...SOUTHEAST SOUTH CAROLINA... CITY SKY/WX TMP DP RH WIND PRES REMARKS N CHARLESTON CLEAR 76 74 93 W6 30.01F WATERFRONT PRK N/A 80 77 90 CALM 30.00F JOHNS ISLAND FAIR 77 75 94 W5 30.01F PINOPOLIS N/A 79 75 89 SW5 29.95F MONCKS CORNER FAIR 72 70 94 CALM 30.00F FOG SUMMERVILLE FAIR 72 70 94 CALM 30.02F BEAUFORT MCAS CLEAR 74 72 93 CALM 30.02F BEAUFORT ARPT FAIR 73 70 88 W3 30.01F HILTON HEAD IS CLEAR 75 73 94 CALM 30.02F WALTERBORO SUNNY 70 70 100 CALM 30.02F ALLENDALE N/A N/A N/A N/A MISG N/A ...SOUTHERN MIDLANDS AND PEE DEE... CITY SKY/WX TMP DP RH WIND PRES REMARKS GEORGETOWN FAIR 73 73 100 CALM 30.02F KINGSTREE FAIR 72 70 94 CALM 30.01S ORANGEBURG CLEAR 73 71 93 CALM 30.01F BARNWELL FAIR 73 73 100 CALM 30.01S AIKEN FAIR 72 70 94 CALM 30.05S MANNING FAIR 73 72 94 W15G22 30.01F COLUMBIA CLEAR 76 69 79 SW3 29.99F SUMTER CLEAR 74 71 89 SW3 29.99F FLORENCE CLEAR 76 75 97 W3 30.01F MYRTLE BEACH CLEAR 77 75 93 SW3 30.02F N MYRTLE BEACH CLEAR 79 76 90 W3 30.01F $$ GAZ063-065-086>088-099>101-113>116-118-119-134>141-150-210800- ...SOUTHEAST GEORGIA... CITY SKY/WX TMP DP RH WIND PRES REMARKS SAVANNAH ARPT CLEAR N/A N/A N/A CALM 30.03F HUNTER AAF CLEAR 71 70 95 CALM 30.00F FORT STEWART PTCLDY 72 70 92 CALM 30.00F STATESBORO CLEAR 73 73 100 CALM 30.02F SYLVANIA MOSUNNY 72 72 100 CALM 30.03F CLAXTON FAIR 73 72 98 CALM 30.02F ...CSRA...CENTRAL AND FAR SOUTHEAST GEORGIA... CITY SKY/WX TMP DP RH WIND PRES REMARKS THOMSON CLEAR 75 71 86 CALM 30.05F AUGUSTA-BUSH CLEAR 75 73 93 CALM 30.00F FOG AUGUSTA-DANIEL CLEAR 78 69 73 S5 30.01F SWAINSBORO FAIR 73 73 100 CALM 30.03S VIDALIA CLEAR 73 72 94 CALM 30.02F EASTMAN FAIR 76 71 86 CALM 30.04F HAZLEHURST FAIR 74 74 100 S3 30.01S ALMA CLEAR 72 69 90 CALM 30.01F WAYCROSS CLEAR 73 73 100 CALM 30.02S JESUP NOT AVBL BAXLEY FAIR 72 72 100 CALM 30.01F BRUNSWICK PTCLDY 72 72 100 CALM 30.03S SAINT SIMONS CLEAR 75 72 90 W3 30.02F $$ SCZ027-028-034-036>038-045-046-048>050-GAZ119-141-210800- ...LAKE AND SUPPLEMENTAL COASTAL OBSERVATIONS... STATION/POSITION TIME TEMP WIND PRES WAVE SWELL AIR SEA DIR/SP/G HT/PER HT/PER/DIR (UTC) (F) (DEG/KT/KT) (MB) (FT/S) (FT/S/D) WINYAH BAY 0545 78 260/ 3 1017.0 LAKE MURRAY 0720 79 270/ 6/ 7 1014.9F ACE BASIN NERRS 0645 74 CALM 1017.0S FORT PULASKI 0700 77 86 300/ 6/ 7 1016.9 SAPELO ISLAND 0600 77 260/ 1 1017.0 $$ ANZ835-935-AMZ111-154-330-350-352-354-370-450-454-472-210800- ...C-MAN AND BUOY OBSERVATIONS... STATION/POSITION TIME TEMP WIND PRES WAVE SWELL AIR SEA DIR/SP/G HT/PER HT/PER/DIR (UTC) (F) (DEG/KT/KT) (MB) (FT/S) (FT/S/D) BUOY 41004 0710 82 83 220/ 12/ 12 1015.8 BUOY 41008 0650 81 82 190/ 10/ 12 1016.3F 2/ 7 2/100/ 7 FOLLY BEACH CMAN 0700 81 240/ 6/ 9 1016.9F CAPERS NEARSHORE 0708 80 83 240/ 12/ 16 1016.0F FRIPP NEARSHORE 0708 81 84 300/ 6/ 10 1016.0F STATION/POSITION TIME TEMP WIND PRES WAVE SWELL AIR SEA DIR/SP/G HT/PER HT/PER/DIR (UTC) (F) (DEG/KT/KT) (MB) (FT/S) (FT/S/D) 5E ST. MARYS GA 0700 82 N/A 2/ 8 FRYING PAN BUOY 0710 83 84 240/ 12/ 14 1015.8 BUOY 41025 0650 82 84 250/ 16/ 17 1015.8F 3/ 4 2/130/ 8 CAPE LOOKOUT NC 0700 80 240/ 9/ 11 1015.8F BUOY 41002 0650 81 83 260/ 8/ 10 1016.8F 3/ 8 3/110/ 8 BUOY 41010 0710 83 85 170/ 8/ 10 1017.0 ST AUGUSTINE FL 0700 79 83 CALM / 1 1016.7F $$

USA.gov is the U.S. government's official web portal to all federal, state and local government web resources and services.